Location: Arbon
(43.0005°N, 0.7472°E)
Time: 13:15:46
(UTC+00:00)

Vanguard 1 - Pass Details

Date: 28 November 2020
Orbit: 648 x 3834 km, 34.3° (Epoch: 23 January)

Event Time Altitude Azimuth Distance (km) Brightness Sun altitude
Rises 05:55:04 0° 243° (WSW) 3,553 - -12.6°
Exits shadow 05:55:50 - 241° (WSW) 3,294 12.4 -12.5°
Reaches altitude 10° 05:57:15 10° 237° (WSW) 2,837 12.1 -12.3°
Maximum altitude 06:03:50 47° 165° (SSE) 1,879 11.7 -11.1°
Drops below altitude 10° 06:15:36 10° 97° (E) 4,974 15.1 -9.1°
Sets 06:20:48 0° 93° (E) 6,513 15.9 -8.2°
